This demonstration page uses our WeatherBlox Daily Observations layout. Learn more.

Left ArrowRight Arrow

Hourly Observations for January 6, 2017

Temp ( °F °C ) Dew Point ( °F °C ) Humidity (%) Winds ( mph kmh ) Pressure ( in mb ) Visibility ( mi km ) Precip ( " mm )
12:53 am 00:53 Clear 23 -5 10 -12.2 57 57 ENE 15 24 30.09 1019 10 16 0.00 0.00
1:53 am 01:53 Clear 21 -6.1 9 -12.8 59 59 ENE 13 20 30.10 1019 10 16 0.00 0.00
2:53 am 02:53 Clear 19 -7.2 8 -13.3 62 62 ENE 12 19 30.12 1020 10 16 0.00 0.00
3:53 am 03:53 Clear 18 -7.8 8 -13.3 65 65 ENE 8 13 30.13 1020 10 16 0.00 0.00
4:53 am 04:53 Clear 17 -8.3 8 -13.3 68 68 ENE 7 11 30.14 1021 10 16 0.00 0.00
5:53 am 05:53 Clear 17 -8.3 8 -13.3 68 68 E 6 9 30.13 1020 10 16 0.00 0.00
6:53 am 06:53 Clear 16 -8.9 8 -13.3 71 71 ENE 7 11 30.16 1022 10 16 0.00 0.00
7:53 am 07:53 Clear 16 -8.9 7 -13.9 67 67 E 7 11 30.19 1022 10 16 0.00 0.00
8:53 am 08:53 Sunny 17 -8.3 6 -14.4 62 62 E 8 13 30.21 1023 10 16 0.00 0.00
9:53 am 09:53 Sunny 20 -6.7 6 -14.4 55 55 ENE 10 17 30.26 1025 10 16 0.00 0.00
10:53 am 10:53 Sunny 23 -5 6 -14.4 48 48 NNE 12 19 30.29 1026 10 16 0.00 0.00
11:53 am 11:53 Cloudy 24 -4.4 7 -13.9 48 48 NNE 10 17 30.31 1027 10 16 0.00 0.00
12:53 pm 12:53 Mostly Cloudy 27 -2.8 8 -13.3 45 45 NNE 8 13 30.31 1026 10 16 0.00 0.00
1:53 pm 13:53 Cloudy 26 -3.3 10 -12.2 51 51 N 9 15 30.31 1026 10 16 0.00 0.00
2:53 pm 14:53 Cloudy 25 -3.9 9 -12.8 50 50 N 14 22 30.34 1028 10 16 0.00 0.00
3:53 pm 15:53 Cloudy 27 -2.8 11 -11.7 51 51 NNE 14 22 30.35 1028 10 16 0.00 0.00
4:53 pm 16:53 Partly Cloudy 27 -2.8 11 -11.7 51 51 N 8 13 30.38 1029 10 16 0.00 0.00
5:53 pm 17:53 Partly Cloudy 26 -3.3 11 -11.7 53 53 N 6 9 30.41 1030 10 16 0.00 0.00
6:53 pm 18:53 Clear 23 -5 12 -11.1 63 63 NNE 5 7 30.45 1031 10 16 0.00 0.00
7:53 pm 19:53 Clear 22 -5.6 12 -11.1 66 66 NE 5 7 30.48 1032 10 16 0.00 0.00
8:53 pm 20:53 Clear 21 -6.1 12 -11.1 68 68 NNE 3 6 30.51 1033 10 16 0.00 0.00
9:53 pm 21:53 Clear 19 -7.2 12 -11.1 74 74 Calm 30.53 1034 10 16 0.00 0.00
10:53 pm 22:53 Clear 19 -7.2 12 -11.1 74 74 Calm 30.54 1034 10 16 0.00 0.00
11:53 pm 23:53 Clear 17 -8.3 11 -11.7 77 77 SSE 3 6 30.55 1035 10 16 0.00 0.00

Powered by AerisWeather